Wind_Speed
20 27 29 28 27 25 24 26 28 27 28 29 26 25 24 23 23 23 22 20 18 18 19 19 18 17 16 18 19 19 20 21 20 19 19 19 20 18 17 17 18 17 17
29 29 30 29 28 26 25 25 26 27 28 27 26 25 24 23 21 21 21 21 19 18 17 17 16 15 18 20 21 22 21 19 18 17 18 18 17 17 16 15 17 16 17
31 30 30 29 28 27 26 27 27 28 27 25 24 24 23 22 21 20 21 21 21 20 19 18 17 18 20 21 21 20 19 18 18 16 17 14 13 16 15 15 15 15 16
31 30 29 30 29 27 27 27 27 27 25 24 23 23 23 22 22 21 21 21 22 22 21 21 21 21 20 20 20 19 18 18 15 13 12 12 12 14 14 13 14 16 15
31 31 30 29 29 28 27 27 26 25 24 23 23 22 22 21 21 21 20 22 23 23 23 22 22 22 21 20 18 18 17 15 14 11 10 10 10 10 11 11 12 14 15
30 31 31 31 29 28 27 27 26 25 24 23 22 22 22 21 21 20 21 21 22 23 23 23 22 22 22 21 18 17 13 9 8 7 7 8 9 10 11 11 11 11 12
31 31 31 30 30 28 27 27 26 25 24 22 21 21 21 21 21 20 20 20 20 21 21 21 21 21 19 17 15 12 9 6 5 4 6 8 8 8 9 10 10 10 10
30 31 30 30 29 29 28 27 25 24 24 23 22 21 20 20 20 20 19 19 19 19 19 19 18 17 17 16 13 11 8 5 3 3 7 10 11 9 9 10 9 8 9
26 29 30 30 29 28 28 27 27 26 25 24 23 21 20 20 19 19 19 18 18 17 17 16 16 15 14 13 12 10 8 7 4 4 7 12 12 8 8 10 10 10 9
22 27 28 28 29 29 28 28 28 27 26 24 23 22 20 19 19 19 18 17 16 16 16 15 14 14 13 12 10 9 7 6 5 6 9 10 13 11 11 10 10 9 10
19 25 26 26 26 27 27 28 27 27 26 24 23 21 20 19 18 17 16 16 15 14 15 14 13 12 10 9 9 8 8 7 8 8 9 12 14 12 11 11 10 11 11
20 26 25 25 24 27 27 27 28 27 26 26 24 24 22 21 19 16 15 15 15 15 14 13 13 11 9 7 7 7 6 7 7 7 8 14 14 11 10 10 11 11 11
20 23 26 26 25 26 25 25 30 24 24 26 27 26 23 23 21 19 18 18 16 16 14 14 12 11 10 8 7 7 7 7 6 6 9 13 13 10 10 11 12 13 10
24 27 27 25 25 26 24 26 29 31 29 25 27 27 26 24 23 22 19 20 20 16 15 14 10 10 9 9 9 7 7 7 8 8 9 12 13 11 10 11 12 11 13
22 26 30 28 27 25 26 27 25 28 30 28 29 29 28 24 26 22 22 17 17 19 14 16 14 12 10 9 10 9 8 9 11 9 9 13 12 10 10 11 11 14 15
21 23 27 30 29 25 29 28 26 24 26 28 28 32 32 26 24 20 19 17 20 20 18 14 16 15 13 12 11 12 12 12 13 12 9 11 13 12 11 13 16 21 21
28 22 31 33 31 31 27 29 25 25 26 26 24 30 32 28 26 21 16 20 20 21 19 18 17 15 14 13 12 12 13 14 15 14 10 10 12 13 18 22 23 23 13
23 27 30 34 34 31 28 26 23 22 24 23 22 22 30 31 30 27 22 20 22 23 21 19 17 15 16 14 13 14 15 15 16 16 15 15 17 21 21 21 21 19 15
20 23 26 33 35 30 28 24 23 23 23 22 21 22 27 29 30 26 23 22 23 21 21 20 19 18 15 15 13 15 16 17 18 19 19 22 23 26 25 25 20 16 14
19 22 24 29 32 30 26 25 23 21 22 21 22 24 27 29 28 28 24 24 24 21 22 21 21 21 16 15 11 15 17 18 20 21 24 25 24 28 26 25 20 19 20
19 22 23 24 29 30 29 28 24 26 25 23 25 24 25 25 25 24 27 24 23 21 22 23 22 21 22 20 16 11 14 18 22 24 29 31 27 33 26 27 27 25 21
13 16 20 22 23 25 22 22 15 20 23 25 23 22 23 23 23 23 24 25 25 24 21 23 24 20 21 24 12 6 3 2 11 18 23 18 32 27 29 28 28 28 23
7 7 17 19 20 21 20 25 17 17 12 18 20 21 22 20 20 21 21 22 24 26 24 25 24 27 22 27 23 7 2 4 5 6 15 16 20 22 30 32 31 29 27
6 4 12 16 19 20 25 23 24 16 12 15 19 20 19 19 20 20 21 22 23 24 23 25 27 28 23 19 22 22 7 8 3 3 5 13 14 15 18 26 29 30 31
3 8 13 16 17 21 21 21 21 14 11 14 13 14 16 18 18 18 18 20 20 20 21 22 24 24 28 21 21 14 13 11 9 3 4 7 13 17 18 19 24 28 27
5 10 15 18 18 18 18 17 18 18 15 13 11 11 12 11 12 14 15 15 14 16 17 19 20 22 26 29 29 25 26 13 9 7 3 6 10 11 19 20 24 26 27
Wind_Direction
168 168 163 157 153 151 150 155 155 154 151 149 147 146 144 141 139 137 136 133 129 125 122 125 125 123 120 117 114 111 108 106 103 102 104 107 108 105 106 105 98 102 104
167 170 166 160 155 152 150 152 155 154 153 151 150 148 145 143 142 140 139 136 136 134 129 126 127 124 120 119 118 115 111 113 110 109 108 111 114 115 115 109 107 108 109
166 169 168 163 158 154 151 149 152 154 155 154 150 149 147 144 142 141 137 136 136 133 133 130 126 123 121 120 118 113 110 112 114 109 109 108 112 117 116 116 112 108 107
168 169 170 169 164 159 155 152 152 155 156 155 153 151 148 147 144 140 139 138 136 133 132 131 130 127 125 124 122 115 109 107 115 108 99 108 115 122 121 119 121 117 111
172 173 175 173 170 165 161 158 157 157 157 157 156 154 150 148 145 142 142 140 137 135 135 135 134 132 130 128 127 122 117 110 107 106 108 114 118 129 127 124 124 123 118
176 177 179 177 176 172 168 166 163 162 160 160 159 157 154 152 149 147 145 144 142 140 139 139 139 139 139 139 137 137 130 117 112 121 123 126 127 141 137 131 128 132 129
180 181 181 182 180 178 176 174 171 167 165 164 164 162 159 157 154 153 150 149 147 143 141 142 146 146 145 146 146 149 144 133 136 146 158 151 143 138 136 141 136 135 134
183 183 183 187 186 184 182 181 178 175 171 169 169 168 166 163 161 159 156 155 155 151 149 149 149 152 153 154 156 158 159 157 145 151 173 168 162 161 149 148 148 141 134
186 184 187 189 191 192 190 186 185 183 180 177 175 173 172 169 167 164 162 161 159 157 155 154 154 158 159 161 165 170 175 180 179 166 167 166 166 159 163 156 157 156 148
188 190 192 194 192 195 196 194 191 190 188 183 180 177 176 175 174 172 170 168 166 163 162 163 164 165 166 169 171 173 178 185 189 176 168 174 167 167 174 167 170 163 162
191 195 196 197 196 196 198 198 198 196 193 189 185 181 179 179 180 180 180 175 173 173 173 172 174 177 179 178 180 182 181 186 185 182 182 181 174 176 183 179 175 175 174
194 199 199 200 198 199 201 200 199 198 196 192 191 188 187 188 187 186 187 186 184 183 186 183 185 188 188 189 192 185 181 188 189 191 192 185 181 184 186 185 181 183 179
201 201 202 202 201 200 198 198 201 196 197 198 197 194 193 192 191 193 192 193 193 193 191 192 195 195 199 200 201 196 185 182 186 187 183 183 185 188 188 190 190 189 180
203 207 206 203 201 201 197 199 202 201 201 199 199 201 198 195 195 198 198 201 199 197 197 201 203 213 211 212 220 213 194 181 178 173 175 182 188 187 185 201 182 175 165
212 210 210 206 203 201 196 202 199 200 202 200 201 204 205 202 203 202 205 202 207 205 205 206 210 216 224 223 219 217 215 200 184 169 165 174 184 189 181 178 178 162 153
228 216 214 213 208 202 202 202 199 201 201 201 204 209 210 209 210 207 207 208 211 215 214 219 216 218 223 227 228 228 221 211 200 188 176 176 181 185 175 163 148 139 137
237 224 221 217 212 209 205 204 202 200 202 201 204 210 214 213 217 211 208 213 218 221 218 221 226 224 227 227 231 226 218 209 200 192 178 170 177 186 169 161 157 157 177
237 225 226 220 216 212 206 205 202 204 205 207 205 207 218 220 221 219 218 216 222 226 222 220 222 224 226 224 222 222 215 209 205 197 188 183 186 179 177 182 179 181 167
243 232 222 219 215 209 204 206 205 205 204 207 206 213 222 223 225 220 221 223 226 229 229 226 228 229 227 225 221 220 216 210 201 198 193 194 193 189 184 184 186 182 178
260 245 224 214 213 207 197 201 202 204 207 208 211 217 218 225 225 230 227 231 231 230 232 229 230 233 228 220 203 218 219 215 209 208 202 198 195 184 187 183 179 170 167
263 242 222 208 205 194 189 189 194 200 204 211 219 220 220 224 224 231 232 232 231 229 235 233 229 224 225 218 188 194 207 217 213 209 201 202 194 185 190 183 179 170 159
284 251 211 204 195 193 191 188 195 193 209 216 218 222 225 226 229 233 233 237 239 238 231 235 233 225 222 210 186 144 155 215 229 217 212 196 186 191 191 187 176 165 157
326 242 196 184 183 188 184 183 182 183 196 202 212 221 220 222 229 238 241 243 245 245 234 233 229 230 218 212 205 175 208 200 155 207 221 215 189 189 183 180 175 171 164
0 129 160 169 175 178 192 187 186 181 181 201 208 215 218 220 227 236 242 246 251 251 245 238 245 234 215 204 209 225 196 157 176 176 194 206 198 188 177 175 171 168 166
65 126 150 158 166 180 184 190 185 181 185 190 200 211 220 227 233 240 244 245 250 253 258 261 253 243 229 212 201 196 202 188 150 144 156 177 181 192 188 174 169 168 164
114 126 134 145 157 169 178 185 190 197 190 178 178 191 207 217 227 232 238 245 251 256 259 262 259 252 245 229 222 211 206 192 178 165 136 148 136 159 177 182 171 165 164
Height
795 798 801 804 807 810 812 815 816 817 819 821 823 825 827 830 832 833 835 836 841 842 843 844 846 846 847 847 848 850 851 852 853 854 854 855 857 858 859 859 860 861 861
790 797 801 804 808 810 813 815 817 819 821 823 825 827 829 831 834 835 836 836 839 842 845 847 848 848 849 850 851 852 853 854 855 856 857 858 859 860 862 862 863 863 863
792 797 802 806 809 811 813 815 818 821 823 825 826 828 831 832 834 837 838 838 838 841 845 847 850 852 852 853 854 856 857 858 859 859 860 863 863 863 864 864 865 866 866
794 798 802 806 808 812 814 816 818 821 824 826 828 830 832 835 836 838 839 839 840 842 845 847 849 852 855 856 857 858 859 860 861 863 865 865 866 865 866 867 867 867 868
794 798 801 805 809 811 815 817 819 822 825 827 830 832 834 836 838 839 841 841 842 843 846 849 851 852 855 857 859 860 861 862 863 864 865 866 868 868 868 869 870 870 870
795 797 801 805 808 811 814 817 819 821 825 828 831 833 835 837 840 841 843 843 844 844 847 849 852 854 855 857 859 860 861 863 864 866 866 867 869 869 870 870 872 873 873
793 797 801 805 808 811 814 816 819 821 824 827 830 833 835 838 840 843 844 846 847 848 850 851 852 854 857 858 859 861 863 864 865 866 866 868 870 870 871 872 872 873 874
792 797 801 805 808 811 814 817 820 822 823 826 830 833 836 839 842 844 846 847 849 850 851 853 855 857 858 859 860 862 863 864 865 865 866 868 869 869 870 872 874 875 876
793 797 800 803 808 811 814 817 820 822 825 827 829 833 837 839 842 845 846 848 850 851 853 854 856 857 859 860 861 862 863 864 865 865 865 867 868 870 871 872 872 874 875
793 795 798 802 806 810 813 815 818 821 824 827 830 833 837 840 842 844 847 849 851 853 854 855 855 857 858 859 860 861 862 864 865 865 866 867 868 869 870 871 873 874 876
791 794 796 799 803 807 811 814 817 820 824 828 831 833 837 840 843 845 847 849 851 853 854 855 856 857 858 859 859 860 860 861 862 864 865 866 868 870 870 871 872 873 874
788 790 793 796 799 803 807 812 815 820 823 826 829 832 834 838 841 845 847 849 850 852 854 855 856 857 858 860 861 861 861 862 863 863 864 865 867 870 871 872 872 873 874
785 787 788 791 795 798 802 807 811 815 819 822 826 829 832 835 838 841 844 846 849 850 852 854 855 857 857 858 860 861 861 862 863 864 864 865 867 869 870 871 872 872 874
779 781 785 788 791 794 799 802 805 810 814 818 822 826 829 831 834 837 840 842 845 848 850 853 855 856 858 858 858 859 860 860 860 862 863 864 866 867 869 869 871 872 873
775 776 779 783 786 790 794 798 801 804 808 812 817 821 825 828 831 834 837 840 844 846 849 849 852 854 856 857 857 858 858 859 859 860 862 863 865 866 867 868 871 872 873
770 773 776 778 781 787 789 793 797 802 805 809 812 817 821 826 829 832 835 839 841 844 847 850 849 851 852 853 855 856 856 857 858 859 861 862 863 865 867 868 870 872 872
763 768 769 772 776 780 785 789 794 798 802 805 809 812 817 823 826 830 834 836 838 841 844 846 848 849 851 852 854 855 855 856 856 858 860 861 862 863 863 864 866 868 872
757 758 761 765 768 774 780 785 790 794 799 804 806 810 812 817 821 825 828 831 833 836 839 841 844 846 847 848 850 851 852 854 855 855 857 859 860 861 864 863 864 866 869
751 752 754 757 761 767 774 780 786 789 794 799 801 805 810 814 817 821 824 827 830 833 836 839 841 843 845 846 848 849 850 851 853 854 855 855 857 858 860 860 862 863 864
746 747 749 750 755 761 769 776 781 786 790 794 796 799 804 808 813 817 820 823 827 829 831 833 836 838 840 843 845 846 848 849 850 852 852 853 853 856 857 859 860 860 862
739 739 743 746 749 755 761 768 775 779 785 789 791 795 801 804 808 812 815 818 822 824 826 828 830 832 834 837 840 843 843 844 844 846 847 847 846 847 854 854 856 857 862
733 732 736 741 746 753 759 765 772 776 781 785 789 793 796 799 803 807 809 813 816 819 822 823 826 829 831 833 835 840 842 846 845 842 844 844 843 846 851 855 854 858 860
731 729 732 737 743 751 756 761 768 774 779 783 785 788 791 796 799 803 806 808 810 812 814 817 821 823 825 826 829 832 838 834 841 842 844 847 840 848 846 849 852 856 859
731 729 732 736 741 748 752 759 763 768 774 777 780 783 788 790 794 797 801 803 805 807 809 810 812 814 818 820 825 825 827 828 833 840 844 843 842 846 848 846 851 851 854
733 732 734 736 741 745 752 757 761 767 771 773 776 781 785 787 790 793 797 798 801 802 804 806 807 809 811 814 816 819 822 823 824 829 836 844 843 845 850 854 852 855 857
736 735 735 737 742 747 751 755 759 764 768 770 774 777 781 785 787 789 792 794 797 798 800 801 802 804 806 807 807 808 811 815 817 821 829 835 837 844 846 850 852 855 857